Satellite: TACSAT-3
Catalog number: 35001
Epoch time:      10066.51435938
Element set:     232
Inclination:      040.4553 deg
RA of node:       104.3727 deg
Eccentricity:    0.0023351
Arg of perigee:   322.0728 deg
Mean anomaly:     037.8441 deg
Mean motion:   15.40591047 rev/day
Decay rate:      5.970e-05 rev/day^2
Epoch rev:            4494
Checksum:              267

Satellite: PHARMSAT
Catalog number: 35002
Epoch time:      10066.24672703
Element set:     220
Inclination:      040.4695 deg
RA of node:       104.3829 deg
Eccentricity:    0.0026386
Arg of perigee:   323.8566 deg
Mean anomaly:     036.0466 deg
Mean motion:   15.41221037 rev/day
Decay rate:      5.264e-05 rev/day^2
Epoch rev:            4491
Checksum:              265

Satellite: HAWKSAT1
Catalog number: 35003
Epoch time:      10066.19738930
Element set:     232
Inclination:      040.4618 deg
RA of node:       101.9687 deg
Eccentricity:    0.0024726
Arg of perigee:   332.0065 deg
Mean anomaly:     027.9415 deg
Mean motion:   15.43153776 rev/day
Decay rate:     1.0480e-04 rev/day^2
Epoch rev:            4494
Checksum:              278

Satellite: CP6
Catalog number: 35004
Epoch time:      10067.46658570
Element set:    0228
Inclination:      040.4624 deg
RA of node:       093.9987 deg
Eccentricity:    0.0023755
Arg of perigee:   342.0491 deg
Mean anomaly:     017.9483 deg
Mean motion:   15.43616859 rev/day
Decay rate:     1.2303e-04 rev/day^2
Epoch rev:           04513
Checksum:              304

Satellite: AEROCUB3
Catalog number: 35005
Epoch time:      10067.47286393
Element set:    0253
Inclination:      040.4731 deg
RA of node:       094.3631 deg
Eccentricity:    0.0021506
Arg of perigee:   340.9109 deg
Mean anomaly:     019.0899 deg
Mean motion:   15.44896863 rev/day
Decay rate:     2.4277e-04 rev/day^2
Epoch rev:           04513
Checksum:              299

Satellite: DRAGNSAT
Catalog number: 35690
Epoch time:      10066.12079401
Element set:     300
Inclination:      051.6306 deg
RA of node:       011.1391 deg
Eccentricity:    0.0003966
Arg of perigee:   161.9362 deg
Mean anomaly:     198.1771 deg
Mean motion:   16.13316135 rev/day
Decay rate:    4.88055e-03 rev/day^2
Epoch rev:            3492
Checksum:              270

Satellite: POLLUX
Catalog number: 35693
Epoch time:      10066.22036237
Element set:     297
Inclination:      051.6332 deg
RA of node:       013.4000 deg
Eccentricity:    0.0004930
Arg of perigee:   141.4160 deg
Mean anomaly:     218.7206 deg
Mean motion:   16.05207381 rev/day
Decay rate:    2.36044e-03 rev/day^2
Epoch rev:            3487
Checksum:              249

Satellite: CASTOR
Catalog number: 35694
Epoch time:      10066.10399590
Element set:     217
Inclination:      051.6394 deg
RA of node:       021.0992 deg
Eccentricity:    0.0004594
Arg of perigee:   131.4043 deg
Mean anomaly:     228.7236 deg
Mean motion:   15.88999850 rev/day
Decay rate:     4.5708e-04 rev/day^2
Epoch rev:            3476
Checksum:              318

Satellite: METEOR-M
Catalog number: 35865
Epoch time:      10067.71387604
Element set:    0146
Inclination:      098.7715 deg
RA of node:       122.1725 deg
Eccentricity:    0.0001868
Arg of perigee:   309.8782 deg
Mean anomaly:     050.2181 deg
Mean motion:   14.21829086 rev/day
Decay rate:       1.76e-06 rev/day^2
Epoch rev:           02444
Checksum:              301

Satellite: RS-38
Catalog number: 35869
Epoch time:      10067.69600013
Element set:    0149
Inclination:      098.7707 deg
RA of node:       122.1797 deg
Eccentricity:    0.0004064
Arg of perigee:   304.1186 deg
Mean anomaly:     055.9563 deg
Mean motion:   14.21976712 rev/day
Decay rate:       1.76e-06 rev/day^2
Epoch rev:           02444
Checksum:              310

/EX




More information about the Keps mailing list